Charles B. Wheeler Downtown Airport Kansas City US
ICAO: KMKC
IATA: MKC
Category: Medium
Scheduled Services: No

Elevation: 759 ft
TransAlt. 18000 ft.

Airport Communications:
APP/DEP:119
ATIS:120.75
CLNC DEL:121.9
GND:121.9
COLUMBIA RDO:122.6
DOWNTOWN TWR:133.3
UNICOM:122.95

KMKC Zoom In..

Runways:

(A) RW 01 length 6827 ft width 150 ft
---- / hdg 8

(B) RW 03 length 5050 ft width 100 ft
ILS 111.75 / hdg 33

(C) RW 19 length 6827 ft width 150 ft
ILS 109.90 / hdg 188

(D) RW 21 length 5050 ft width 100 ft
---- / hdg 213

Location; KMKC
Day. 19 / Time. 20.54 Zulu
* Altimeter: 30.40
* Temperature: 15° c. 59°f.
* Wind from: 040° Speed 09 kn with Gusts up to 17 kn.
Dewpoint: -01° c.
Visibility: 10 Statute Miles.
Clouds: Clear (automated report).

KMKC 192054Z 04009G17KT 10SM CLR 15/M01 A3040 RMK AO2 SLP297 T01501011 58015


Wind From 040°
Speed 09 kn.

  YouTube Music Video
 
jpsmedia.com for Web Design  worldairports.se 2018   terms of use